Location: Asheville, NC
(35.6000°N, 82.5500°W)
Time: 17:16:27
(UTC-04:00)

CUBEBUG 2 - Pass Details

Date: 09 March 2018
Orbit: 587 x 699 km, 97.6° (Epoch: 17 June)

Event Time Altitude Azimuth Distance (km) Brightness Sun altitude
Rises 19:10:59 0° 178° (S) 3,041 ? -8.6°
Reaches altitude 10° 19:13:17 10° 182° (S) 2,118 ? -9.1°
Maximum altitude 19:17:49 54° 260° (W) 815 ? -10.0°
Drops below altitude 10° 19:22:16 10° 338° (NNW) 2,072 ? -10.9°
Sets 19:24:31 0° 343° (NNW) 2,969 ? -11.4°
